This is the latest recevied weather packets stored in our database for station/object SP9MUF-14. If no packets are shown the sender has not sent any weather packets the latest 10 day(s).
| Time | Temp. | Humidity | Pressure | Rain* | Wind** | Luminosity | Snow |
|---|---|---|---|---|---|---|---|
| 1777971281 | 25.56° C | 20% | 1009.3 hPa | 0 mm | - | 641 W/m² | - |
| 1777970981 | 25° C | 24% | 1009.3 hPa | 0 mm | - | 667 W/m² | - |
| 1777970677 | 25° C | 24% | 1009.3 hPa | 0 mm | - | 609 W/m² | - |
| 1777968545 | 23.89° C | 26% | 1009.8 hPa | 0 mm | - | 519 W/m² | - |
| 1777965201 | 20.56° C | 39% | 1010.7 hPa | 0 mm | - | 388 W/m² | - |
| 1777964897 | 20° C | 40% | 1010.8 hPa | 0 mm | - | 366 W/m² | - |
| 1777959731 | 12.78° C | 60% | 1012 hPa | 0 mm | - | 38 W/m² | - |
| 1777958507 | 10.56° C | 68% | 1012.4 hPa | 0 mm | - | 35 W/m² | - |
| 1777958203 | 10° C | 71% | 1012.4 hPa | 0 mm | - | 34 W/m² | - |
| 1777957899 | 10° C | 71% | 1012.4 hPa | 0 mm | - | 33 W/m² | - |
| 1777957595 | 8.89° C | 73% | 1012.4 hPa | 0 mm | - | 32 W/m² | - |
| 1777957292 | 8.89° C | 75% | 1012.4 hPa | 0 mm | - | 31 W/m² | - |
| 1777956987 | 8.89° C | 76% | 1012.5 hPa | 0 mm | - | 29 W/m² | - |
| 1777956683 | 7.78° C | 77% | 1012.5 hPa | 0 mm | - | 28 W/m² | - |
| 1777956379 | 7.78° C | 78% | 1012.4 hPa | 0 mm | - | 27 W/m² | - |
| 1777956075 | 7.78° C | 79% | 1012.5 hPa | 0 mm | - | 26 W/m² | - |
| 1777955771 | 7.78° C | 79% | 1012.4 hPa | 0 mm | - | 25 W/m² | - |
| 1777955467 | 7.78° C | 79% | 1012.4 hPa | 0 mm | - | 25 W/m² | - |
| 1777955163 | 7.78° C | 79% | 1012.4 hPa | 0 mm | - | 23 W/m² | - |
| 1777954860 | 6.67° C | 79% | 1012.5 hPa | 0 mm | - | 20 W/m² | - |
| 1777954555 | 6.67° C | 79% | 1012.5 hPa | 0 mm | - | 18 W/m² | - |
| 1777954251 | 6.67° C | 79% | 1012.5 hPa | 0 mm | - | 17 W/m² | - |
| 1777953947 | 6.67° C | 79% | 1012.6 hPa | 0 mm | - | 16 W/m² | - |
| 1777953643 | 6.67° C | 79% | 1012.6 hPa | 0 mm | - | 14 W/m² | - |
| 1777953339 | 6.67° C | 79% | 1012.7 hPa | 0 mm | - | 13 W/m² | - |
* Rain latest hour (hover to see other rain measurements)
** Current wind speed in m/s (hover to see current wind gust speed)